COSMOS 2251 DEB, 35890

Orbit data source: Space-Track

COSMOS 2251 DEB, 35890 is space debris in LEO originally from a launch on Wed, 16 Jun 1993 UTC launched from the Plesetsk Missile And Space Complex (PKMTR). The debris from Iridium 33, an American commercial communications satellite, has been tracked extensively since its accidental collision with the defunct Russian satellite Cosmos 2251 in 2009. This event, occurring at high speed in low Earth orbit (LEO), generated thousands of pieces of space debris, significantly increasing the risk of further collisions. The Iridium 33 debris cloud has impacted space traffic management and orbital debris mitigation strategies, making it a subject of ongoing study in space situational awareness.

Loading next visibility...
Identifier
35890, 1993-036AUD
Orbit
LEO
Country
Flag of CISCIS
Related business
Manufacturer
Unknown
Mission
Spacecraft
Bus & Motor
Unknown
Mass
Unknown
Launch date (UTC)
1993-06-16 (33 years ago)
Launch vehicle
Unknown
Launch site
Plesetsk Missile And Space Complex (PKMTR)
Object type
Payload
Rocket body
Debris
Shape & HBR
Unknown shape, 0.1 m
Radar Cross Section
Small (<0.1 m²)

Expand to show TLE details & history
Last TLE update: 5 days ago

TLE from 5 days ago
0 COSMOS 2251 DEB
1 35890U 93036AUD 25350.95400554  .00005621  00000-0  12168-2 0  9997
2 35890  73.9365 234.6414 0053944 358.5125   1.5869 14.57543512652120
Epoch: 2025-12-16T22:53Z
TLE epoch observation values (Epoch: 2025-12-16T22:53:46.078Z)
Latitude
-0.00002°
Longitude
165.36859°
Altitude
665.568 km
Speed
7.545 km/s
True Right ascension
15h 38m 33s
True Declination
0° 00' 00"
Sunlit
Object was in daylight at epoch
Visualization orbit readout
Latitude
Unknown
Longitude
Unknown
Altitude
Unknown
Speed
Unknown
Apparent Right ascension
Unknown
Apparent Declination
Unknown
Sunlit
N/A
Visualization observer readout
Local Sidereal Time
11:08:48
Azimuth
Unknown
Elevation
Unknown
Doppler factor
Unknown
Orbital elements
Apogee altitude
736.901 km
Perigee altitude
660.55 km
Semi-major axis
7,076.863 km
Eccentricity
0.00539
Inclination
73.9365°
RAAN
234.6414°
Arg. of periapsis
358.5125°
True anomaly
1.60413°
Mean anomaly
1.5869°
Eccentric anomaly
1.59551°
Mean motion
3.64571 °/min
Orbital period
98.75 mins
BSTAR
0.0012168

Documentation

Showing up to 5 results
|